Time,TemperatureF,DewpointF,PressureIn,WindDirection,WindDirectionDegrees,WindSpeedMPH,WindSpeedGustMPH,Humidity,HourlyPrecipIn,Conditions,Clouds,dailyrainin,SoftwareType,DateUTC
2013-04-23 00:13:00,38.3,31.0,30.42,WSW,248,0.0,0.0,74,0.00,,,0.00,weatherlink.com 1.10,2013-04-23 07:13:00,
2013-04-23 00:28:00,39.0,33.0,30.42,WSW,248,0.0,0.0,78,0.00,,,0.00,weatherlink.com 1.10,2013-04-23 07:28:00,
2013-04-23 00:43:00,39.2,33.0,30.41,WSW,248,0.0,0.0,77,0.00,,,0.00,weatherlink.com 1.10,2013-04-23 07:43:00,
2013-04-23 00:58:00,39.2,33.0,30.41,WSW,248,0.0,0.0,78,0.00,,,0.00,weatherlink.com 1.10,2013-04-23 07:58:00,
2013-04-23 01:13:00,37.8,33.0,30.41,WSW,248,0.0,0.0,82,0.00,,,0.00,weatherlink.com 1.10,2013-04-23 08:13:00,
2013-04-23 01:28:00,37.6,33.0,30.41,WSW,248,0.0,0.0,83,0.00,,,0.00,weatherlink.com 1.10,2013-04-23 08:28:00,
2013-04-23 01:43:00,37.3,33.0,30.41,WSW,248,0.0,0.0,85,0.00,,,0.00,weatherlink.com 1.10,2013-04-23 08:43:00,
2013-04-23 01:58:00,37.0,34.0,30.41,SSW,193,0.0,1.0,87,0.00,,,0.00,weatherlink.com 1.10,2013-04-23 08:58:00,
2013-04-23 02:13:00,37.1,33.0,30.41,WSW,240,0.0,0.0,86,0.00,,,0.00,weatherlink.com 1.10,2013-04-23 09:13:00,
2013-04-23 02:28:00,36.7,33.0,30.40,WSW,241,0.0,0.0,87,0.00,,,0.00,weatherlink.com 1.10,2013-04-23 09:28:00,
2013-04-23 02:44:00,36.4,33.0,30.40,WSW,240,0.0,0.0,88,0.00,,,0.00,weatherlink.com 1.10,2013-04-23 09:44:00,
2013-04-23 02:59:00,35.8,33.0,30.39,WSW,241,0.0,0.0,89,0.00,,,0.00,weatherlink.com 1.10,2013-04-23 09:59:00,
2013-04-23 03:14:00,35.8,33.0,30.39,WSW,240,0.0,0.0,89,0.00,,,0.00,weatherlink.com 1.10,2013-04-23 10:14:00,
2013-04-23 03:29:00,35.8,33.0,30.39,WSW,240,0.0,0.0,90,0.00,,,0.00,weatherlink.com 1.10,2013-04-23 10:29:00,
2013-04-23 03:44:00,35.6,33.0,30.38,WSW,240,0.0,0.0,90,0.00,,,0.00,weatherlink.com 1.10,2013-04-23 10:44:00,
2013-04-23 03:59:00,35.2,33.0,30.38,WSW,240,0.0,0.0,90,0.00,,,0.00,weatherlink.com 1.10,2013-04-23 10:59:00,
2013-04-23 04:14:00,34.1,32.0,30.38,WSW,240,0.0,0.0,91,0.00,,,0.00,weatherlink.com 1.10,2013-04-23 11:14:00,
2013-04-23 04:29:00,34.1,32.0,30.38,WSW,240,0.0,0.0,93,0.00,,,0.00,weatherlink.com 1.10,2013-04-23 11:29:00,
2013-04-23 04:44:00,33.9,33.0,30.38,WSW,240,0.0,0.0,95,0.00,,,0.00,weatherlink.com 1.10,2013-04-23 11:44:00,
2013-04-23 04:59:00,33.9,32.0,30.38,WSW,239,0.0,0.0,93,0.00,,,0.00,weatherlink.com 1.10,2013-04-23 11:59:00,
2013-04-23 05:14:00,34.2,33.0,30.38,WSW,241,0.0,0.0,94,0.00,,,0.00,weatherlink.com 1.10,2013-04-23 12:14:00,
2013-04-23 05:29:00,34.2,32.0,30.37,WSW,239,0.0,0.0,93,0.00,,,0.00,weatherlink.com 1.10,2013-04-23 12:29:00,
2013-04-23 05:44:00,34.3,33.0,30.37,WSW,240,0.0,1.0,94,0.00,,,0.00,weatherlink.com 1.10,2013-04-23 12:44:00,
2013-04-23 05:59:00,33.5,32.0,30.36,WSW,239,0.0,0.0,94,0.00,,,0.00,weatherlink.com 1.10,2013-04-23 12:59:00,
2013-04-23 06:14:00,33.6,32.0,30.36,WSW,240,0.0,0.0,95,0.00,,,0.00,weatherlink.com 1.10,2013-04-23 13:14:00,
2013-04-23 06:29:00,33.7,33.0,30.36,WSW,239,0.0,0.0,95,0.00,,,0.00,weatherlink.com 1.10,2013-04-23 13:29:00,
2013-04-23 06:44:00,34.3,33.0,30.35,WSW,239,0.0,0.0,96,0.00,,,0.00,weatherlink.com 1.10,2013-04-23 13:44:00,
2013-04-23 06:59:00,35.4,34.0,30.35,WSW,240,0.0,0.0,94,0.00,,,0.00,weatherlink.com 1.10,2013-04-23 13:59:00,
2013-04-23 07:14:00,36.7,35.0,30.35,SSE,148,0.0,1.0,93,0.00,,,0.00,weatherlink.com 1.10,2013-04-23 14:14:00,
2013-04-23 07:29:00,39.3,37.0,30.35,SE,142,0.0,0.0,90,0.00,,,0.00,weatherlink.com 1.10,2013-04-23 14:29:00,
2013-04-23 07:44:00,41.9,37.0,30.35,SE,143,0.0,0.0,84,0.00,,,0.00,weatherlink.com 1.10,2013-04-23 14:44:00,
2013-04-23 07:59:00,41.3,37.0,30.34,SE,142,0.0,1.0,85,0.00,,,0.00,weatherlink.com 1.10,2013-04-23 14:59:00,
2013-04-23 08:14:00,41.6,37.0,30.34,SE,127,0.0,1.0,83,0.00,,,0.00,weatherlink.com 1.10,2013-04-23 15:14:00,
2013-04-23 08:29:00,43.9,38.0,30.33,SE,128,0.0,1.0,81,0.00,,,0.00,weatherlink.com 1.10,2013-04-23 15:29:00,
2013-04-23 08:44:00,44.6,39.0,30.33,East,86,0.0,1.0,80,0.00,,,0.00,weatherlink.com 1.10,2013-04-23 15:44:00,
2013-04-23 08:59:00,46.1,40.0,30.33,ENE,70,1.0,2.0,80,0.00,,,0.00,weatherlink.com 1.10,2013-04-23 15:59:00,
2013-04-23 09:14:00,47.9,41.0,30.32,East,96,1.0,1.0,76,0.00,,,0.00,weatherlink.com 1.10,2013-04-23 16:14:00,
2013-04-23 09:29:00,51.1,37.0,30.32,SW,230,0.0,3.0,60,0.00,,,0.00,weatherlink.com 1.10,2013-04-23 16:29:00,
2013-04-23 09:45:00,52.4,34.0,30.31,ESE,108,2.0,4.0,50,0.00,,,0.00,weatherlink.com 1.10,2013-04-23 16:45:00,
2013-04-23 10:00:00,54.5,35.0,30.30,ESE,120,1.0,3.0,48,0.00,,,0.00,weatherlink.com 1.10,2013-04-23 17:00:00,
2013-04-23 10:15:00,53.4,35.0,30.31,ESE,106,1.0,4.0,50,0.00,,,0.00,weatherlink.com 1.10,2013-04-23 17:15:00,
2013-04-23 10:30:00,53.6,34.0,30.30,SE,139,3.0,5.0,48,0.00,,,0.00,weatherlink.com 1.10,2013-04-23 17:30:00,
2013-04-23 10:45:00,55.4,32.0,30.31,SE,131,0.0,4.0,42,0.00,,,0.00,weatherlink.com 1.10,2013-04-23 17:45:00,
2013-04-23 11:00:00,55.3,33.0,30.31,ESE,120,0.0,5.0,43,0.00,,,0.00,weatherlink.com 1.10,2013-04-23 18:00:00,
2013-04-23 11:15:00,55.7,32.0,30.32,NNE,30,2.0,5.0,40,0.00,,,0.00,weatherlink.com 1.10,2013-04-23 18:15:00,
2013-04-23 11:30:00,56.9,31.0,30.32,ESE,116,2.0,5.0,38,0.00,,,0.00,weatherlink.com 1.10,2013-04-23 18:30:00,
2013-04-23 11:45:00,58.3,31.0,30.31,East,85,1.0,4.0,36,0.00,,,0.00,weatherlink.com 1.10,2013-04-23 18:45:00,
2013-04-23 12:00:00,58.0,33.0,30.31,ENE,70,2.0,6.0,39,0.00,,,0.00,weatherlink.com 1.10,2013-04-23 19:00:00,
2013-04-23 12:15:00,58.3,35.0,30.30,SSE,158,3.0,5.0,42,0.00,,,0.00,weatherlink.com 1.10,2013-04-23 19:15:00,
2013-04-23 12:30:00,58.4,35.0,30.30,SW,216,0.0,5.0,41,0.00,,,0.00,weatherlink.com 1.10,2013-04-23 19:30:00,
2013-04-23 12:45:00,58.5,35.0,30.29,ESE,111,0.0,4.0,42,0.00,,,0.00,weatherlink.com 1.10,2013-04-23 19:45:00,
2013-04-23 13:00:00,59.2,33.0,30.29,ESE,120,0.0,5.0,38,0.00,,,0.00,weatherlink.com 1.10,2013-04-23 20:00:00,
2013-04-23 13:15:00,59.3,35.0,30.29,NNW,336,1.0,6.0,40,0.00,,,0.00,weatherlink.com 1.10,2013-04-23 20:15:00,
2013-04-23 13:30:00,60.6,36.0,30.28,WSW,243,0.0,2.0,40,0.00,,,0.00,weatherlink.com 1.10,2013-04-23 20:30:00,
2013-04-23 13:45:00,60.7,33.0,30.28,NNE,13,0.0,8.0,35,0.00,,,0.00,weatherlink.com 1.10,2013-04-23 20:45:00,
2013-04-23 14:00:00,60.8,33.0,30.27,ENE,58,3.0,10.0,35,0.00,,,0.00,weatherlink.com 1.10,2013-04-23 21:00:00,
2013-04-23 14:15:00,61.5,33.0,30.27,NNW,330,0.0,6.0,34,0.00,,,0.00,weatherlink.com 1.10,2013-04-23 21:15:00,
2013-04-23 14:30:00,62.5,34.0,30.27,ESE,113,3.0,7.0,34,0.00,,,0.00,weatherlink.com 1.10,2013-04-23 21:30:00,
2013-04-23 14:45:00,61.6,34.0,30.27,NE,56,4.0,9.0,35,0.00,,,0.00,weatherlink.com 1.10,2013-04-23 21:45:00,
2013-04-23 15:00:00,61.5,33.0,30.27,ENE,71,3.0,10.0,35,0.00,,,0.00,weatherlink.com 1.10,2013-04-23 22:00:00,
2013-04-23 15:15:00,61.4,32.0,30.26,ENE,65,7.0,11.0,33,0.00,,,0.00,weatherlink.com 1.10,2013-04-23 22:15:00,
2013-04-23 15:30:00,61.3,32.0,30.26,East,79,1.0,9.0,33,0.00,,,0.00,weatherlink.com 1.10,2013-04-23 22:30:00,
2013-04-23 15:45:00,61.3,29.0,30.26,ENE,67,6.0,10.0,29,0.00,,,0.00,weatherlink.com 1.10,2013-04-23 22:45:00,
2013-04-23 16:00:00,61.4,30.0,30.25,NE,45,5.0,11.0,30,0.00,,,0.00,weatherlink.com 1.10,2013-04-23 23:00:00,
2013-04-23 16:15:00,61.1,28.0,30.25,NNE,29,6.0,10.0,29,0.00,,,0.00,weatherlink.com 1.10,2013-04-23 23:15:00,
2013-04-23 16:30:00,61.1,28.0,30.24,NE,47,1.0,12.0,28,0.00,,,0.00,weatherlink.com 1.10,2013-04-23 23:30:00,
2013-04-23 16:45:00,60.9,29.0,30.23,NE,53,4.0,10.0,30,0.00,,,0.00,weatherlink.com 1.10,2013-04-23 23:45:00,
2013-04-23 17:00:00,60.7,28.0,30.23,NNE,15,6.0,10.0,29,0.00,,,0.00,weatherlink.com 1.10,2013-04-24 00:00:00,
2013-04-23 17:15:00,60.5,30.0,30.23,North,353,6.0,9.0,31,0.00,,,0.00,weatherlink.com 1.10,2013-04-24 00:15:00,
2013-04-23 17:30:00,60.6,29.0,30.23,NNE,19,2.0,10.0,30,0.00,,,0.00,weatherlink.com 1.10,2013-04-24 00:30:00,
2013-04-23 17:46:00,60.3,30.0,30.23,East,84,3.0,10.0,32,0.00,,,0.00,weatherlink.com 1.10,2013-04-24 00:46:00,
2013-04-23 18:01:00,60.5,33.0,30.23,NE,50,3.0,10.0,35,0.00,,,0.00,weatherlink.com 1.10,2013-04-24 01:01:00,
2013-04-23 18:16:00,59.7,34.0,30.24,NE,41,3.0,10.0,38,0.00,,,0.00,weatherlink.com 1.10,2013-04-24 01:16:00,
2013-04-23 18:31:00,58.8,34.0,30.24,NE,49,2.0,10.0,40,0.00,,,0.00,weatherlink.com 1.10,2013-04-24 01:31:00,
2013-04-23 18:46:00,58.3,35.0,30.24,NE,40,1.0,10.0,42,0.00,,,0.00,weatherlink.com 1.10,2013-04-24 01:46:00,
2013-04-23 19:01:00,58.0,34.0,30.24,NNE,27,2.0,8.0,41,0.00,,,0.00,weatherlink.com 1.10,2013-04-24 02:01:00,
2013-04-23 19:16:00,57.0,34.0,30.24,NNW,338,1.0,8.0,43,0.00,,,0.00,weatherlink.com 1.10,2013-04-24 02:16:00,
2013-04-23 19:31:00,56.2,35.0,30.24,NNE,15,2.0,5.0,46,0.00,,,0.00,weatherlink.com 1.10,2013-04-24 02:31:00,
2013-04-23 19:46:00,55.6,35.0,30.24,North,360,2.0,8.0,46,0.00,,,0.00,weatherlink.com 1.10,2013-04-24 02:46:00,
2013-04-23 20:16:00,54.2,35.0,30.24,NNW,338,0.0,4.0,49,0.00,,,0.00,weatherlink.com 1.10,2013-04-24 03:16:00,
2013-04-23 20:31:00,53.3,35.0,30.25,NE,36,0.0,1.0,50,0.00,,,0.00,weatherlink.com 1.10,2013-04-24 03:31:00,
2013-04-23 21:01:00,51.2,38.0,30.26,WSW,249,0.0,1.0,60,0.00,,,0.00,weatherlink.com 1.10,2013-04-24 04:01:00,
2013-04-23 21:16:00,50.3,37.0,30.26,WSW,247,0.0,0.0,61,0.00,,,0.00,weatherlink.com 1.10,2013-04-24 04:16:00,
2013-04-23 21:31:00,49.3,36.0,30.27,WSW,248,0.0,0.0,61,0.00,,,0.00,weatherlink.com 1.10,2013-04-24 04:31:00,
2013-04-23 21:46:00,49.0,37.0,30.27,SSW,193,0.0,0.0,64,0.00,,,0.00,weatherlink.com 1.10,2013-04-24 04:46:00,
2013-04-23 22:01:00,48.8,37.0,30.27,WSW,238,0.0,0.0,64,0.00,,,0.00,weatherlink.com 1.10,2013-04-24 05:01:00,
2013-04-23 22:16:00,48.3,37.0,30.27,WSW,238,0.0,0.0,65,0.00,,,0.00,weatherlink.com 1.10,2013-04-24 05:16:00,
2013-04-23 22:31:00,47.4,38.0,30.27,WSW,238,0.0,0.0,69,0.00,,,0.00,weatherlink.com 1.10,2013-04-24 05:31:00,
2013-04-23 22:46:00,46.3,38.0,30.28,WSW,240,0.0,1.0,72,0.00,,,0.00,weatherlink.com 1.10,2013-04-24 05:46:00,
2013-04-23 23:01:00,45.9,38.0,30.28,WSW,239,0.0,0.0,73,0.00,,,0.00,weatherlink.com 1.10,2013-04-24 06:01:00,
2013-04-23 23:16:00,46.3,38.0,30.28,WSW,248,0.0,0.0,72,0.00,,,0.00,weatherlink.com 1.10,2013-04-24 06:16:00,
2013-04-23 23:31:00,45.4,38.0,30.29,WSW,246,0.0,0.0,75,0.00,,,0.00,weatherlink.com 1.10,2013-04-24 06:31:00,
2013-04-23 23:46:00,45.8,38.0,30.29,WSW,248,0.0,1.0,73,0.00,,,0.00,weatherlink.com 1.10,2013-04-24 06:46:00,